When you browse on this site, cookies collect data to enhance your experience and personalize the content and advertising you see.
Visit our Privacy Policy to learn more. By continuing to use the site, you agree to this use of cookies and data.
  • In Germany
  • List of Countries
  • For 7 days
  • Water Temperature
  • Satellite Maps
  • Weather Map
  • Weather Widgets
  • user-avatar
    Login

    Hourly Weather Pinsk

    Today, 23 July, Tuesday

    Time Temperature Precipitation Wind Pressure Humidity
    00:00 +14°C° 0 mm 3 mps 750 mmHg 92%
    01:00 +14°C° 0 mm 3 mps 750 mmHg 93%
    02:00 +13°C° 0 mm 3 mps 750 mmHg 94%
    03:00 +12°C° 0 mm 3 mps 750 mmHg 94%
    04:00 +12°C° 0 mm 3 mps 750 mmHg 94%
    05:00 +11°C° 0 mm 3 mps 750 mmHg 95%
    06:00 +13°C° 0 mm 4 mps 750 mmHg 91%
    07:00 +14°C° 0 mm 4 mps 750 mmHg 87%
    08:00 +15°C° 0 mm 4 mps 750 mmHg 83%
    09:00 +17°C° 0 mm 5 mps 750 mmHg 78%
    10:00 +19°C° 0 mm 5 mps 750 mmHg 72%
    11:00 +20°C° 0 mm 6 mps 750 mmHg 67%
    12:00 +21°C° 0 mm 6 mps 749 mmHg 66%
    13:00 +22°C° 0 mm 6 mps 749 mmHg 65%
    14:00 +22°C° 0 mm 6 mps 749 mmHg 63%
    15:00 +22°C° 0.5 mm 5 mps 749 mmHg 68%
    16:00 +21°C° 0.5 mm 5 mps 749 mmHg 73%
    17:00 +21°C° 0.5 mm 4 mps 749 mmHg 78%
    18:00 +20°C° 0.4 mm 4 mps 749 mmHg 81%
    19:00 +19°C° 0.4 mm 3 mps 749 mmHg 85%
    20:00 +18°C° 0.4 mm 3 mps 748 mmHg 88%
    21:00 +17°C° 0 mm 3 mps 749 mmHg 90%
    22:00 +17°C° 0 mm 3 mps 749 mmHg 91%
    23:00 +16°C° 0 mm 3 mps 749 mmHg 93%

    Tomorrow, 24 July, Wednesday

    Time Temperature Precipitation Wind Pressure Humidity
    00:00 +16°C° 0 mm 3 mps 749 mmHg 94%
    01:00 +16°C° 0 mm 3 mps 749 mmHg 95%
    02:00 +14°C° 0 mm 3 mps 748 mmHg 96%
    03:00 +14°C° 0 mm 3 mps 749 mmHg 96%
    04:00 +14°C° 0 mm 4 mps 749 mmHg 97%
    05:00 +14°C° 0 mm 4 mps 749 mmHg 97%
    06:00 +15°C° 0 mm 4 mps 749 mmHg 95%
    07:00 +17°C° 0 mm 4 mps 749 mmHg 93%
    08:00 +18°C° 0 mm 4 mps 749 mmHg 90%
    09:00 +20°C° 0.1 mm 4 mps 749 mmHg 81%
    10:00 +22°C° 0.1 mm 4 mps 749 mmHg 73%
    11:00 +25°C° 0.1 mm 4 mps 749 mmHg 64%
    12:00 +25°C° 0.1 mm 4 mps 749 mmHg 61%
    13:00 +26°C° 0.1 mm 4 mps 749 mmHg 59%
    14:00 +26°C° 0.1 mm 4 mps 749 mmHg 57%
    15:00 +26°C° 0.1 mm 4 mps 749 mmHg 58%
    16:00 +26°C° 0.1 mm 4 mps 749 mmHg 60%
    17:00 +26°C° 0.1 mm 3 mps 749 mmHg 61%
    18:00 +24°C° 0 mm 3 mps 749 mmHg 67%
    19:00 +21°C° 0 mm 3 mps 749 mmHg 73%
    20:00 +20°C° 0 mm 2 mps 749 mmHg 79%
    21:00 +19°C° 0 mm 2 mps 749 mmHg 81%
    22:00 +18°C° 0 mm 2 mps 749 mmHg 83%
    23:00 +17°C° 0 mm 2 mps 750 mmHg 86%

    Day after tomorrow, 25 July, Thursday

    Time Temperature Precipitation Wind Pressure Humidity
    00:00 +16°C° 0 mm 2 mps 750 mmHg 87%
    01:00 +16°C° 0 mm 2 mps 750 mmHg 89%
    02:00 +16°C° 0 mm 2 mps 750 mmHg 90%
    03:00 +15°C° 0 mm 2 mps 750 mmHg 90%
    04:00 +15°C° 0 mm 2 mps 750 mmHg 90%
    05:00 +15°C° 0 mm 2 mps 750 mmHg 90%
    06:00 +16°C° 0 mm 2 mps 750 mmHg 84%
    07:00 +18°C° 0 mm 2 mps 750 mmHg 79%
    08:00 +20°C° 0 mm 2 mps 750 mmHg 73%
    09:00 +21°C° 0 mm 3 mps 750 mmHg 68%
    10:00 +24°C° 0 mm 3 mps 750 mmHg 62%
    11:00 +25°C° 0 mm 4 mps 750 mmHg 57%
    12:00 +25°C° 0.3 mm 4 mps 750 mmHg 58%
    13:00 +26°C° 0.3 mm 4 mps 750 mmHg 59%
    14:00 +26°C° 0.3 mm 4 mps 749 mmHg 60%
    15:00 +25°C° 0.5 mm 4 mps 749 mmHg 63%
    16:00 +25°C° 0.5 mm 4 mps 749 mmHg 66%
    17:00 +25°C° 0.5 mm 4 mps 748 mmHg 69%
    18:00 +22°C° 0.3 mm 3 mps 748 mmHg 74%
    19:00 +21°C° 0.3 mm 2 mps 748 mmHg 80%
    20:00 +19°C° 0.3 mm 2 mps 748 mmHg 85%
    21:00 +19°C° 0.2 mm 2 mps 748 mmHg 87%
    22:00 +18°C° 0.2 mm 2 mps 748 mmHg 90%
    23:00 +17°C° 0.2 mm 2 mps 748 mmHg 92%

    26 July, Friday

    Time Temperature Precipitation Wind Pressure Humidity
    00:00 +16°C° 0 mm 2 mps 748 mmHg 93%
    01:00 +16°C° 0 mm 2 mps 747 mmHg 94%
    02:00 +15°C° 0 mm 2 mps 747 mmHg 95%
    03:00 +15°C° 0 mm 2 mps 747 mmHg 95%
    04:00 +15°C° 0 mm 2 mps 747 mmHg 96%
    05:00 +14°C° 0 mm 2 mps 747 mmHg 96%
    06:00 +16°C° 0 mm 2 mps 747 mmHg 93%
    07:00 +17°C° 0 mm 3 mps 747 mmHg 90%
    08:00 +18°C° 0 mm 3 mps 747 mmHg 87%
    09:00 +19°C° 0.4 mm 3 mps 747 mmHg 83%
    10:00 +20°C° 0.4 mm 3 mps 747 mmHg 80%
    11:00 +21°C° 0.4 mm 4 mps 747 mmHg 77%
    12:00 +21°C° 1.1 mm 4 mps 747 mmHg 78%
    13:00 +21°C° 1.1 mm 5 mps 747 mmHg 78%
    14:00 +21°C° 1.1 mm 5 mps 746 mmHg 79%
    15:00 +21°C° 0.5 mm 5 mps 746 mmHg 80%
    16:00 +21°C° 0.5 mm 5 mps 746 mmHg 81%
    17:00 +21°C° 0.5 mm 5 mps 746 mmHg 82%
    18:00 +20°C° 0.3 mm 4 mps 746 mmHg 86%
    19:00 +19°C° 0.3 mm 4 mps 746 mmHg 90%
    20:00 +18°C° 0.3 mm 3 mps 746 mmHg 93%
    21:00 +18°C° 0 mm 3 mps 746 mmHg 94%
    22:00 +17°C° 0 mm 3 mps 746 mmHg 95%
    23:00 +17°C° 0 mm 3 mps 746 mmHg 96%

    27 July, Saturday

    Time Temperature Precipitation Wind Pressure Humidity
    00:00 +16°C° 0 mm 3 mps 746 mmHg 96%
    01:00 +16°C° 0 mm 3 mps 746 mmHg 97%
    02:00 +16°C° 0 mm 3 mps 746 mmHg 97%
    03:00 +16°C° 0 mm 3 mps 746 mmHg 97%
    04:00 +14°C° 0 mm 3 mps 746 mmHg 97%
    05:00 +14°C° 0 mm 3 mps 746 mmHg 97%
    06:00 +17°C° 0 mm 4 mps 747 mmHg 95%
    07:00 +18°C° 0 mm 4 mps 747 mmHg 92%
    08:00 +19°C° 0 mm 4 mps 747 mmHg 90%
    09:00 +20°C° 0.2 mm 5 mps 747 mmHg 87%
    10:00 +21°C° 0.2 mm 5 mps 747 mmHg 84%
    11:00 +22°C° 0.2 mm 6 mps 747 mmHg 80%
    12:00 +22°C° 0.3 mm 6 mps 747 mmHg 78%
    13:00 +22°C° 0.3 mm 6 mps 747 mmHg 76%
    14:00 +23°C° 0.3 mm 6 mps 747 mmHg 73%
    15:00 +23°C° 0 mm 6 mps 747 mmHg 74%
    16:00 +22°C° 0 mm 5 mps 747 mmHg 75%
    17:00 +22°C° 0 mm 5 mps 746 mmHg 75%
    18:00 +21°C° 0.3 mm 4 mps 746 mmHg 80%
    19:00 +20°C° 0.3 mm 3 mps 746 mmHg 85%
    20:00 +19°C° 0.3 mm 2 mps 746 mmHg 89%
    21:00 +19°C° 0.7 mm 2 mps 746 mmHg 91%
    22:00 +19°C° 0.7 mm 2 mps 746 mmHg 93%
    23:00 +19°C° 0.7 mm 3 mps 746 mmHg 95%

    28 July, Sunday

    Time Temperature Precipitation Wind Pressure Humidity
    00:00 +19°C° 0.4 mm 3 mps 746 mmHg 95%
    01:00 +18°C° 0.4 mm 3 mps 746 mmHg 96%
    02:00 +18°C° 0.4 mm 3 mps 746 mmHg 96%
    03:00 +18°C° 0 mm 3 mps 746 mmHg 97%
    04:00 +18°C° 0 mm 3 mps 746 mmHg 97%
    05:00 +17°C° 0 mm 3 mps 746 mmHg 97%
    06:00 +19°C° 0 mm 3 mps 746 mmHg 94%
    07:00 +20°C° 0 mm 3 mps 746 mmHg 92%
    08:00 +21°C° 0 mm 4 mps 746 mmHg 89%
    09:00 +23°C° 0 mm 4 mps 746 mmHg 83%
    10:00 +25°C° 0 mm 4 mps 746 mmHg 76%
    11:00 +27°C° 0 mm 4 mps 747 mmHg 70%
    12:00 +27°C° 0 mm 4 mps 746 mmHg 68%
    13:00 +28°C° 0 mm 4 mps 746 mmHg 65%
    14:00 +28°C° 0 mm 5 mps 746 mmHg 63%
    15:00 +28°C° 0.1 mm 4 mps 746 mmHg 64%
    16:00 +28°C° 0.1 mm 4 mps 745 mmHg 65%
    17:00 +28°C° 0.1 mm 3 mps 745 mmHg 66%
    18:00 +27°C° 0 mm 3 mps 745 mmHg 72%
    19:00 +25°C° 0 mm 3 mps 745 mmHg 77%
    20:00 +24°C° 0 mm 3 mps 745 mmHg 82%
    21:00 +23°C° 0 mm 2 mps 745 mmHg 85%
    22:00 +21°C° 0 mm 2 mps 745 mmHg 87%
    23:00 +20°C° 0 mm 2 mps 745 mmHg 89%
    Show more